CW4043 Weather Reports


Display with metric or nautical units.
time (UTC)temp
F
wind
direction
speed
MPH
gust
MPH
rain 1hr
in
rain 24hr
in
rain mn
in
humidity
%
barometer
mb
20260507062118 50 40 5.0 11.0 0.00 0.00 0.00 88 1014.4
20260507061615 50 54 5.0 10.0 0.00 0.00 0.00 88 1014.3
20260507061109 50 28 4.0 12.0 0.00 0.00 0.00 88 1014.2
20260507060609 49 65 5.0 12.0 0.00 0.00 0.00 88 1014.2
20260507060113 49 40 6.0 12.0 0.00 0.00 0.00 88 1014.2
20260507055608 49 54 5.0 12.0 0.00 0.00 0.00 88 1014.2
20260507055109 49 108 4.0 11.0 0.00 0.00 0.00 89 1014.1
20260507054833 49 69 5.0 11.0 0.00 0.00 0.00 89 1014.0
20260507054105 49 46 5.0 11.0 0.00 0.00 0.00 89 1014.0
20260507053604 49 24 4.0 10.0 0.00 0.00 0.00 89 1013.9
20260507052602 49 60 6.0 12.0 0.00 0.00 0.00 89 1013.8
20260507052319 49 34 4.0 10.0 0.00 0.00 0.00 89 1013.8
20260507051602 49 29 4.0 9.0 0.00 0.00 0.00 89 1013.8
20260507051100 49 31 4.0 9.0 0.00 0.00 0.00 89 1013.7
20260507050601 49 44 4.0 12.0 0.00 0.00 0.00 89 1013.8
20260507050108 49 40 4.0 12.0 0.00 0.00 0.00 89 1013.7
20260507045558 49 40 4.0 10.0 0.00 0.00 0.00 89 1013.5
20260507045057 48 41 4.0 10.0 0.00 0.00 0.00 89 1013.5
20260507044540 48 55 5.0 9.0 0.00 0.00 0.00 89 1013.6
20260507044306 48 32 6.0 12.0 0.00 0.00 0.00 89 1013.5
20260507043528 48 40 6.0 13.0 0.00 0.00 0.00 89 1013.4
20260507043253 48 48 6.0 13.0 0.00 0.00 0.00 89 1013.4
20260507042747 48 42 5.0 10.0 0.00 0.00 0.00 89 1013.4
20260507042026 48 59 4.0 9.0 0.00 0.00 0.00 88 1013.4
20260507041751 48 36 5.0 11.0 0.00 0.00 0.00 88 1013.4
20260507041023 48 28 5.0 11.0 0.00 0.00 0.00 88 1013.3
20260507040517 48 35 5.0 10.0 0.00 0.00 0.00 88 1013.3
20260507040021 48 57 4.0 10.0 0.00 0.00 0.00 88 1013.3
20260507035516 48 36 5.0 10.0 0.00 0.00 0.00 88 1013.2
20260507035020 48 22 4.0 9.0 0.00 0.00 0.00 88 1013.1
20260507034517 48 35 4.0 8.0 0.00 0.00 0.00 87 1013.1
20260507034019 48 35 4.0 9.0 0.00 0.00 0.00 87 1013.0
20260507033735 48 26 5.0 9.0 0.00 0.00 0.00 87 1013.0
20260507033021 48 35 6.0 11.0 0.00 0.00 0.00 87 1013.0
20260507032723 48 36 5.0 10.0 0.00 0.00 0.00 87 1012.9
20260507032619 48 34 5.0 11.0 0.00 0.00 0.00 87 1012.9
20260507031516 48 355 5.0 11.0 0.00 0.00 0.00 87 1012.9
20260507031246 48 29 6.0 11.0 0.00 0.00 0.00 86 1012.9
20260507030516 48 25 5.0 11.0 0.00 0.00 0.00 86 1012.9
20260507030020 48 42 5.0 9.0 0.00 0.00 0.00 86 1012.8
20260507025516 48 49 5.0 11.0 0.00 0.00 0.00 86 1012.8
20260507025020 48 62 5.0 12.0 0.00 0.00 0.00 86 1012.9
20260507024516 48 10 6.0 13.0 0.00 0.00 0.00 86 1012.9
20260507024021 48 5 6.0 14.0 0.00 0.00 0.00 86 1012.8
20260507023516 48 26 5.0 14.0 0.00 0.00 0.00 86 1012.8
20260507023021 48 39 5.0 11.0 0.00 0.00 0.00 85 1012.7
20260507022515 48 21 5.0 11.0 0.00 0.00 0.00 85 1012.7
20260507022020 48 38 5.0 11.0 0.00 0.00 0.00 85 1012.7
20260507021515 48 34 5.0 13.0 0.00 0.00 0.00 85 1012.5
20260507021019 48 27 5.0 13.0 0.00 0.00 0.00 85 1012.6
20260507020517 48 40 5.0 13.0 0.00 0.00 0.00 84 1012.5
20260507020020 48 41 5.0 13.0 0.00 0.00 0.00 84 1012.4
20260507015516 48 43 6.0 13.0 0.00 0.00 0.00 84 1012.4
20260507015019 48 25 6.0 14.0 0.00 0.00 0.00 84 1012.4
20260507014529 48 74 7.0 14.0 0.00 0.00 0.00 83 1012.4
20260507014019 48 25 7.0 12.0 0.00 0.00 0.00 83 1012.4
20260507013516 48 13 7.0 13.0 0.00 0.00 0.00 83 1012.4
20260507013020 48 27 6.0 13.0 0.00 0.00 0.00 82 1012.4
20260507012516 48 23 7.0 13.0 0.00 0.00 0.00 82 1012.4
20260507012019 48 11 7.0 13.0 0.00 0.00 0.00 82 1012.3
20260507011530 48 51 6.0 13.0 0.00 0.00 0.00 82 1012.3
20260507011019 48 34 6.0 13.0 0.00 0.00 0.00 82 1012.2
20260507010516 48 25 7.0 13.0 0.00 0.00 0.00 81 1012.2
20260507010019 48 47 8.0 16.0 0.00 0.00 0.00 81 1012.2
20260507005742 48 37 8.0 16.0 0.00 0.00 0.00 81 1012.1
20260507005019 48 38 7.0 13.0 0.00 0.00 0.00 81 1012.2
20260507004516 48 34 7.0 13.0 0.00 0.00 0.00 81 1012.2
20260507004020 48 15 7.0 13.0 0.00 0.00 0.00 81 1012.2
20260507003515 48 36 7.0 13.0 0.00 0.00 0.00 82 1012.2
20260507003020 48 24 7.0 13.0 0.00 0.00 0.00 82 1012.2
20260507002516 48 34 7.0 13.0 0.00 0.00 0.00 82 1012.1
20260507002020 48 42 6.0 13.0 0.00 0.00 0.00 82 1012.2
20260507001515 48 18 7.0 15.0 0.00 0.00 0.00 82 1012.2
20260507001021 48 24 7.0 15.0 0.00 0.00 0.00 81 1012.1
20260507000529 48 30 6.0 15.0 0.00 0.00 0.00 81 1012.0
20260507000022 48 49 6.0 15.0 0.00 0.00 0.00 81 1012.1
20260506235516 48 32 6.0 13.0 0.00 0.00 0.00 81 1012.1
20260506235020 48 36 7.0 13.0 0.00 0.00 0.00 81 1012.1
20260506234516 48 42 8.0 15.0 0.00 0.00 0.00 81 1012.2
20260506234020 48 40 7.0 15.0 0.00 0.00 0.00 81 1012.2
20260506233530 48 17 7.0 15.0 0.00 0.00 0.00 81 1012.2
20260506233007 48 44 8.0 15.0 0.00 0.00 0.00 81 1012.2
20260506232520 48 31 7.0 15.0 0.00 0.00 0.00 82 1012.2
20260506232008 48 36 8.0 17.0 0.00 0.00 0.00 82 1012.2
20260506231508 48 9 9.0 17.0 0.00 0.00 0.00 82 1012.2
20260506231009 48 61 8.0 16.0 0.00 0.00 0.00 82 1012.1
20260506230731 48 51 7.0 15.0 0.00 0.00 0.00 82 1012.2
20260506230007 48 28 7.0 15.0 0.00 0.00 0.00 82 1012.2
20260506225507 48 26 7.0 15.0 0.00 0.00 0.00 82 1012.2
20260506225007 48 61 7.0 15.0 0.00 0.00 0.00 82 1012.2
20260506224507 48 38 6.0 15.0 0.00 0.00 0.00 82 1012.2
20260506224457 48 46 5.0 12.0 0.00 0.00 0.00 82 1012.2
20260506223520 48 49 7.0 15.0 0.00 0.00 0.00 82 1012.2
20260506223008 48 46 7.0 15.0 0.00 0.00 0.00 81 1012.2
20260506222507 48 51 7.0 14.0 0.00 0.00 0.00 81 1012.2
20260506222007 48 63 7.0 14.0 0.00 0.00 0.00 81 1012.2
20260506221706 48 58 7.0 16.0 0.00 0.00 0.00 81 1012.3
20260506221540 48 38 7.0 14.0 0.00 0.00 0.00 81 1012.3
20260506220450 47 32 8.0 16.0 0.00 0.00 0.00 81 1012.2
20260506215950 47 44 8.0 15.0 0.00 0.00 0.00 81 1012.2
20260506215715 47 33 8.0 16.0 0.00 0.00 0.00 81 1012.2
20260506215213 47 36 7.0 18.0 0.00 0.00 0.00 82 1012.0
20260506214449 47 44 7.0 18.0 0.00 0.00 0.00 82 1012.0
20260506213949 47 36 6.0 16.0 0.00 0.00 0.00 82 1012.0
20260506213449 47 24 6.0 12.0 0.00 0.00 0.00 82 1011.9
20260506213215 47 44 6.0 13.0 0.00 0.00 0.00 82 1012.0
20260506212450 47 30 7.0 13.0 0.00 0.00 0.00 82 1012.0
20260506211948 47 25 7.0 14.0 0.00 0.00 0.00 82 1012.0
20260506211447 47 5 7.0 14.0 0.00 0.00 0.00 82 1011.9
20260506210948 47 22 7.0 14.0 0.00 0.00 0.00 83 1011.9
20260506210711 47 38 7.0 13.0 0.00 0.00 0.00 82 1011.9
20260506205945 47 40 7.0 13.0 0.00 0.00 0.00 82 1011.9
20260506205445 47 54 7.0 13.0 0.00 0.00 0.00 82 1011.9
20260506204945 47 55 6.0 13.0 0.00 0.00 0.00 83 1011.9
20260506204442 47 42 7.0 16.0 0.00 0.00 0.00 83 1011.9
20260506203938 48 22 7.0 16.0 0.00 0.00 0.00 83 1011.9
20260506203436 48 55 8.0 15.0 0.00 0.00 0.00 83 1011.8
20260506202932 48 20 8.0 15.0 0.00 0.00 0.00 83 1011.8
20260506202657 48 41 8.0 14.0 0.00 0.00 0.00 83 1011.9
20260506201931 48 36 7.0 15.0 0.00 0.00 0.00 83 1011.8
20260506201430 48 25 8.0 19.0 0.00 0.00 0.00 83 1011.9
20260506200927 48 45 9.0 19.0 0.00 0.00 0.00 83 1011.8
20260506200427 48 55 10.0 18.0 0.00 0.00 0.00 82 1011.7
20260506195925 48 54 10.0 18.0 0.00 0.00 0.00 82 1011.7
20260506195645 49 50 9.0 18.0 0.00 0.00 0.00 82 1011.7
20260506194925 49 26 9.0 19.0 0.00 0.00 0.00 81 1011.6
20260506194425 49 45 11.0 19.0 0.00 0.00 0.00 81 1011.6
20260506193925 49 43 9.0 17.0 0.00 0.00 0.00 81 1011.6
20260506193650 49 34 6.0 15.0 0.00 0.00 0.00 81 1011.6
20260506192925 49 40 6.0 14.0 0.00 0.00 0.00 81 1011.5
20260506192425 49 32 7.0 14.0 0.00 0.00 0.00 80 1011.6
20260506192138 49 36 9.0 17.0 0.00 0.00 0.00 80 1011.4
20260506191421 49 47 8.0 17.0 0.00 0.00 0.00 80 1011.3
20260506190918 49 36 6.0 16.0 0.00 0.00 0.00 80 1011.2
20260506190416 49 42 8.0 18.0 0.00 0.00 0.00 80 1011.2
20260506185904 49 15 9.0 18.0 0.00 0.00 0.00 80 1011.0
20260506185403 50 37 9.0 16.0 0.00 0.00 0.00 80 1011.0
20260506185130 50 9 8.0 16.0 0.00 0.00 0.00 80 1010.9
20260506184359 50 53 8.0 16.0 0.00 0.00 0.00 80 1010.9
20260506183853 50 35 8.0 16.0 0.00 0.00 0.00 79 1010.8
20260506183355 50 19 10.0 16.0 0.00 0.00 0.00 79 1010.8
20260506182849 50 19 9.0 17.0 0.00 0.00 0.00 79 1010.7
20260506182352 51 53 8.0 17.0 0.00 0.00 0.00 79 1010.7
20260506181849 51 59 9.0 17.0 0.00 0.00 0.00 79 1010.7
20260506181352 51 28 8.0 18.0 0.00 0.00 0.00 79 1010.7
20260506180845 51 51 8.0 18.0 0.00 0.00 0.00 79 1010.6
20260506180616 51 34 10.0 19.0 0.00 0.00 0.00 77 1010.5
20260506175803 51 66 9.0 19.0 0.00 0.00 0.00 78 1010.5
20260506175524 51 42 8.0 16.0 0.00 0.00 0.00 78 1010.5
20260506174802 51 34 9.0 17.0 0.00 0.00 0.00 77 1010.5
20260506174526 51 49 9.0 17.0 0.00 0.00 0.00 77 1010.5
20260506173804 51 33 10.0 18.0 0.00 0.00 0.00 77 1010.4
20260506173524 52 30 10.0 18.0 0.00 0.00 0.00 76 1010.5
20260506172801 52 65 9.0 17.0 0.00 0.00 0.00 76 1010.4
20260506172523 52 49 9.0 20.0 0.00 0.00 0.00 76 1010.4
20260506172022 52 31 9.0 20.0 0.00 0.00 0.00 75 1010.4
20260506171256 53 17 9.0 18.0 0.00 0.00 0.00 76 1010.3
20260506170756 53 30 8.0 16.0 0.00 0.00 0.00 75 1010.3
20260506170254 53 38 8.0 16.0 0.00 0.00 0.00 76 1010.3
20260506165754 53 24 9.0 21.0 0.00 0.00 0.00 75 1010.3
20260506165254 53 95 9.0 21.0 0.00 0.00 0.00 76 1010.3
20260506164748 53 19 11.0 19.0 0.00 0.00 0.00 74 1010.3
20260506164248 53 18 10.0 21.0 0.00 0.00 0.00 74 1010.2
20260506163744 53 40 10.0 21.0 0.00 0.00 0.00 73 1010.3
20260506163244 53 22 10.0 19.0 0.00 0.00 0.00 74 1010.3
20260506162742 53 40 11.0 22.0 0.00 0.00 0.00 73 1010.1
20260506162515 54 40 11.0 22.0 0.00 0.00 0.00 72 1010.1
20260506161958 54 19 12.0 23.0 0.00 0.00 0.00 71 1010.2
20260506161237 55 60 13.0 23.0 0.00 0.00 0.00 70 1010.2
20260506160738 55 16 12.0 21.0 0.00 0.00 0.00 70 1010.2
20260506160238 55 86 11.0 21.0 0.00 0.00 0.00 71 1010.2
20260506155738 55 47 12.0 23.0 0.00 0.00 0.00 71 1010.2
20260506155512 56 16 12.0 23.0 0.00 0.00 0.00 70 1010.2
20260506154737 56 48 10.0 18.0 0.00 0.00 0.00 71 1010.2
20260506154237 56 22 9.0 17.0 0.00 0.00 0.00 71 1010.2
20260506153737 55 55 11.0 19.0 0.00 0.00 0.00 73 1010.2
20260506153236 55 31 13.0 19.0 0.00 0.00 0.00 74 1010.1
20260506152734 54 35 13.0 21.0 0.00 0.00 0.00 75 1010.2
20260506152234 54 44 12.0 21.0 0.00 0.00 0.00 76 1010.1
20260506151957 54 47 12.0 20.0 0.00 0.00 0.00 77 1010.1
20260506151234 54 46 11.0 20.0 0.00 0.00 0.00 76 1010.0
20260506150733 54 28 11.0 19.0 0.00 0.00 0.00 77 1010.0
20260506150230 54 39 11.0 19.0 0.00 0.00 0.00 78 1009.9
20260506145730 54 32 12.0 21.0 0.00 0.00 0.00 77 1009.9
20260506145229 54 32 12.0 21.0 0.00 0.00 0.00 78 1009.9
20260506144728 54 63 12.0 19.0 0.00 0.00 0.00 79 1009.7
20260506144229 54 36 11.0 19.0 0.00 0.00 0.00 79 1009.8
20260506143727 54 30 11.0 21.0 0.00 0.00 0.00 80 1009.8
20260506143225 53 24 11.0 21.0 0.00 0.00 0.00 80 1009.8
20260506142949 53 33 11.0 17.0 0.00 0.00 0.00 80 1009.8
20260506142226 53 46 11.0 19.0 0.00 0.00 0.00 80 1009.8
20260506141726 53 38 11.0 19.0 0.00 0.00 0.00 80 1009.9
20260506141225 54 34 10.0 18.0 0.00 0.00 0.00 80 1009.9
20260506140722 54 34 11.0 19.0 0.00 0.00 0.00 80 1009.9
20260506140223 55 51 11.0 19.0 0.00 0.00 0.00 80 1009.9
20260506135720 54 39 12.0 19.0 0.00 0.00 0.00 81 1009.9
20260506135221 54 53 12.0 19.0 0.00 0.00 0.00 80 1010.0
20260506134721 54 37 12.0 21.0 0.00 0.00 0.00 80 1010.0
20260506134440 54 16 12.0 22.0 0.00 0.00 0.00 81 1009.8
20260506133718 54 38 10.0 22.0 0.00 0.00 0.00 80 1009.8
20260506133218 54 53 9.0 19.0 0.00 0.00 0.00 80 1009.9
20260506132718 54 51 9.0 17.0 0.00 0.00 0.00 80 1009.9
20260506132217 55 32 9.0 23.0 0.00 0.00 0.00 80 1009.8
20260506131716 54 27 11.0 23.0 0.00 0.00 0.00 80 1009.7
20260506131214 54 28 12.0 22.0 0.00 0.00 0.00 80 1009.7
20260506130714 54 46 12.0 20.0 0.00 0.00 0.00 79 1009.8
20260506130215 55 35 11.0 20.0 0.00 0.00 0.00 78 1009.8
20260506125713 55 56 10.0 19.0 0.00 0.00 0.00 79 1009.6
20260506125431 55 26 9.0 19.0 0.00 0.00 0.00 78 1009.6
20260506124712 55 71 10.0 18.0 0.00 0.00 0.00 78 1009.7
20260506124210 55 28 10.0 18.0 0.00 0.00 0.00 77 1009.6
20260506123709 55 24 10.0 20.0 0.00 0.00 0.00 77 1009.6
20260506123203 55 17 11.0 21.0 0.00 0.00 0.00 76 1009.5
20260506122923 56 32 11.0 21.0 0.00 0.00 0.00 74 1009.5
20260506122202 57 57 9.0 16.0 0.00 0.00 0.00 71 1009.4
20260506121702 57 65 8.0 18.0 0.00 0.00 0.00 67 1009.4
20260506121426 58 26 7.0 18.0 0.00 0.00 0.00 68 1009.3
20260506120933 57 36 8.0 18.0 0.00 0.00 0.00 68 1009.2
20260506120418 56 35 7.0 18.0 0.00 0.00 0.00 68 1009.3
20260506115659 56 34 7.0 16.0 0.00 0.00 0.00 68 1009.2
20260506115154 56 59 8.0 19.0 0.00 0.00 0.00 67 1009.1
20260506114655 56 33 9.0 19.0 0.00 0.00 0.00 67 1009.1
20260506114155 56 31 8.0 18.0 0.00 0.00 0.00 66 1009.1
20260506113654 56 119 8.0 16.0 0.00 0.00 0.00 68 1009.1
20260506113154 56 85 9.0 15.0 0.00 0.00 0.00 68 1009.1
20260506112654 56 53 9.0 18.0 0.00 0.00 0.00 69 1009.1
20260506112154 56 31 9.0 18.0 0.00 0.00 0.00 69 1009.1
20260506112133 56 46 8.0 17.0 0.00 0.00 0.00 70 1009.2
20260506111419 56 70 7.0 14.0 0.00 0.00 0.00 69 1009.1
20260506110648 57 55 6.0 14.0 0.00 0.00 0.00 71 1009.0
20260506110147 56 51 6.0 14.0 0.00 0.00 0.00 71 1009.0
20260506110137 56 40 7.0 15.0 0.00 0.00 0.00 70 1009.0
20260506105141 56 17 7.0 15.0 0.00 0.00 0.00 70 1009.0
20260506104638 56 49 7.0 14.0 0.00 0.00 0.00 69 1009.1
20260506104136 56 0 5.0 13.0 0.00 0.00 0.00 68 1009.2
20260506103636 56 90 5.0 12.0 0.00 0.00 0.00 69 1009.2
20260506103136 56 63 6.0 12.0 0.00 0.00 0.00 70 1009.2
20260506102636 56 345 6.0 15.0 0.00 0.00 0.00 68 1009.2
20260506102136 55 19 6.0 15.0 0.00 0.00 0.00 69 1009.2
20260506101635 55 40 5.0 11.0 0.00 0.00 0.00 70 1009.1
20260506101133 55 0 5.0 11.0 0.00 0.00 0.00 71 1009.2
20260506100632 54 22 5.0 11.0 0.00 0.00 0.00 71 1009.1
20260506100130 54 67 4.0 10.0 0.00 0.00 0.00 73 1009.1
20260506095630 54 18 5.0 11.0 0.00 0.00 0.00 73 1009.1
20260506095130 53 12 5.0 11.0 0.00 0.00 0.00 72 1009.1
20260506094628 53 81 6.0 16.0 0.00 0.00 0.00 72 1009.2
20260506094616 53 40 5.0 16.0 0.00 0.00 0.00 73 1009.2
20260506093628 53 26 5.0 13.0 0.00 0.00 0.00 73 1009.2
20260506093128 53 45 4.0 13.0 0.00 0.00 0.00 74 1009.2
20260506092627 53 47 5.0 11.0 0.00 0.00 0.00 74 1009.3
20260506092609 52 17 5.0 11.0 0.00 0.00 0.00 74 1009.2
20260506091844 52 38 6.0 14.0 0.00 0.00 0.00 74 1009.2
20260506091346 52 45 6.0 14.0 0.00 0.00 0.00 74 1009.1
20260506090624 52 55 6.0 12.0 0.00 0.00 0.00 75 1009.2
20260506090122 52 13 6.0 12.0 0.00 0.00 0.00 76 1009.1
20260506085617 52 20 6.0 13.0 0.00 0.00 0.00 77 1009.1
20260506085114 52 51 5.0 13.0 0.00 0.00 0.00 77 1009.1
20260506084614 52 31 6.0 14.0 0.00 0.00 0.00 78 1009.2
20260506084113 52 38 6.0 14.0 0.00 0.00 0.00 78 1009.1
20260506083610 52 78 5.0 12.0 0.00 0.00 0.00 79 1009.0
20260506083110 52 28 4.0 10.0 0.00 0.00 0.00 79 1009.0
20260506082609 52 13 5.0 11.0 0.00 0.00 0.00 80 1009.0
20260506082102 52 44 6.0 15.0 0.00 0.00 0.00 80 1009.0
20260506081602 52 52 6.0 15.0 0.00 0.00 0.00 79 1009.0
20260506081102 52 86 6.0 14.0 0.00 0.00 0.00 79 1008.9
20260506080820 52 39 6.0 14.0 0.00 0.00 0.00 79 1008.9
20260506073525 51 36 7.0 12.0 0.00 0.00 0.00 81 1008.5
20260506073514 51 5 7.0 15.0 0.00 0.00 0.00 81 1008.6
20260506072524 51 50 6.0 15.0 0.00 0.00 0.00 82 1008.7
20260506072234 51 46 5.0 13.0 0.00 0.00 0.00 83 1008.6
20260506071518 51 89 5.0 11.0 0.00 0.00 0.00 84 1008.6
20260506071242 51 98 5.0 11.0 0.00 0.00 0.00 85 1008.6
20260506070515 51 41 5.0 15.0 0.00 0.00 0.00 86 1008.6
20260506062456 50 81 6.0 14.0 0.00 0.00 0.00 88 1008.3